{"data":{"norad_id":58748,"intl_designator":"2024-005W","name":"STARLINK-31165","alt_names":[],"object_type":"PAYLOAD","status":"ACTIVE","operator":null,"country":"US","launch_date":"2024-01-07","launch_site_code":"AFETR","launch_vehicle":null,"mission":null,"orbit_class":"UNKNOWN","rcs_meters":null,"size_class":null,"mass_kg":null,"dimensions":null,"purposes":["comms"],"wikipedia_slug":null,"has_3d_model":false,"image_url":null,"decayed_at":null,"tle_current":{"epoch":"2026-09-20T13:12:40.203648Z","epoch_age_seconds":148131,"freshness":"FRESH","line1":"1 58748U 24005W   26263.55046532  .00000571  00000+0  30285-4 0  9996","line2":"2 58748  43.0049 199.4124 0001949 260.5936  99.4695 15.27581332150249","mean_motion":15.27581332,"eccentricity":0.0001949,"inclination_deg":43.0049,"raan_deg":199.4124,"arg_perigee_deg":260.5936,"mean_anomaly_deg":99.4695,"bstar":3.0285e-5,"rev_number":15024,"period_min":94.266666516189,"perigee_km":481.7078631626,"apogee_km":484.38235194813,"semimajor_km":6861.1821075554,"source":"CELESTRAK","updated_at":"2026-09-21T09:00:33.955607Z"}}}